{"data":{"norad_id":58865,"epoch":"2026-09-20T08:30:31.020480Z","epoch_age_seconds":165052,"freshness":"FRESH","line1":"1 58865U 24019N   26263.35452570  .00000578  00000+0  30530-4 0  9992","line2":"2 58865  43.0022 229.5858 0000908 281.8904  78.1845 15.27578431148833","mean_motion":15.27578431,"eccentricity":9.08e-5,"inclination_deg":43.0022,"raan_deg":229.5858,"arg_perigee_deg":281.8904,"mean_anomaly_deg":78.1845,"bstar":3.053e-5,"rev_number":14883,"period_min":94.266845536522,"perigee_km":482.43079807001,"apogee_km":483.67679031823,"semimajor_km":6861.1907941941,"source":"CELESTRAK","updated_at":"2026-09-21T09:00:33.989374Z"}}